Erie, PA

5:33 AM EST on November 18, 2017 (GMT -0500)
Erie International

Weather History for KERI - May, 2014

Change the Weather History Date:

Thursday, May 8, 2014

  Actual Average Record
Temperature  
Mean Temperature 65 °F 55 °F  
Max Temperature 78 °F 64 °F 89 °F (1875)
Min Temperature 52 °F 46 °F 29 °F (1976)
Degree Days  
Heating Degree Days 0 11  
Month to date heating degree days 108 95  
Since 1 July heating degree days 6598 5914  
Cooling Degree Days 0 1  
Month to date cooling degree days 0 3  
Year to date cooling degree days 0 10  
Growing Degree Days 14 (Base 50)    
Moisture  
Dew Point 53 °F    
Average Humidity 69    
Maximum Humidity 93    
Minimum Humidity 45    
Precipitation  
Precipitation 0.30 in 0.11 in 2.23 in (1969)
Month to date precipitation 0.60 0.85  
Year to date precipitation 13.50 12.47  
Snow  
Snow 0.00 in 0.00 in - ()
Month to date snowfall 0.0 0.0  
Since 1 July snowfall 138.4 100.9  
Snow Depth 0.00 in    
Sea Level Pressure  
Sea Level Pressure 30.01 in    
Wind  
Wind Speed 6 mph (East)    
Max Wind Speed 18 mph    
Max Gust Speed 24 mph    
Visibility 8 miles    
Events Rain , Thunderstorm    
T = Trace of Precipitation, MM = Missing Value Source: NWS Daily Summary

Daily Weather History Graph

Daily Weather History Graph

Search for Another Location

Airport or City:

Trip Planner

Search our weather history database for the weather conditions in past years. The results will help you decide how hot, cold, wet, or windy it might be!

Date:

Astronomy

May. 08, 2014 Rise Set
Actual Time 6:07 AM EDT 8:27 PM EDT
Civil Twilight 5:36 AM EDT 8:58 PM EDT
Nautical Twilight 4:57 AM EDT 9:37 PM EDT
Astronomical Twilight 4:15 AM EDT 10:20 PM EDT
Moon 2:20 PM EDT (5/8) 2:44 AM EDT (5/8)
Length of Visible Light 15h 22m
Length of Day
14h 19m
Waxing Gibbous, 64% of the Moon is Illuminated
May 8
Waxing Gibbous
May 14
Full
May 21
Last Quarter
May 28
New
Jun 5
First Quarter

Hourly Weather History & Observations

Time (EDT) Temp. Dew Point Humidity Pressure Visibility Wind Dir Wind Speed Gust Speed Precip Events Conditions
12:51 AM 55.9 °F 48.0 °F 75% 30.07 in 3.0 mi SW 6.9 mph - 0.05 in Rain , Thunderstorm Heavy Rain
1:09 AM 55.4 °F 48.2 °F 77% 30.02 in 6.0 mi South 13.8 mph 19.6 mph 0.05 in Rain Rain
1:51 AM 55.9 °F 48.9 °F 77% 30.01 in 9.0 mi South 16.1 mph - 0.07 in Rain Light Rain
2:51 AM 55.9 °F 50.0 °F 80% 30.04 in 10.0 mi Calm Calm - 0.11 in Rain , Thunderstorm Light Thunderstorms and Rain
3:08 AM 53.6 °F 50.0 °F 88% 30.05 in 7.0 mi North 6.9 mph - 0.02 in Rain Rain
3:22 AM 51.8 °F 48.2 °F 88% 30.03 in 7.0 mi East 4.6 mph - 0.03 in Rain , Thunderstorm Light Thunderstorms and Rain
3:37 AM 53.6 °F 51.8 °F 94% 30.02 in 5.0 mi South 6.9 mph - 0.07 in Rain Rain
3:51 AM 52.0 °F 50.0 °F 93% 30.00 in 4.0 mi East 10.4 mph - 0.11 in Rain Rain
4:51 AM 53.6 °F 50.0 °F 88% 30.00 in 7.0 mi ENE 6.9 mph - N/A   Clear
5:51 AM 53.1 °F 50.0 °F 89% 30.03 in 6.0 mi Calm Calm - N/A   Clear
6:51 AM 54.0 °F 52.0 °F 93% 30.05 in 6.0 mi SE 3.5 mph - N/A   Clear
7:51 AM 57.2 °F 53.6 °F 88% 30.05 in 8.0 mi ENE 5.8 mph - N/A   Scattered Clouds
8:51 AM 60.1 °F 53.1 °F 78% 30.06 in 9.0 mi East 3.5 mph - N/A   Clear
9:51 AM 66.0 °F 55.0 °F 68% 30.04 in 10.0 mi South 10.4 mph - N/A   Clear
10:51 AM 64.9 °F 52.0 °F 63% 30.05 in 10.0 mi North 10.4 mph 24.2 mph N/A   Clear
11:51 AM 66.0 °F 54.0 °F 65% 30.05 in 10.0 mi NNE 4.6 mph - N/A   Clear
12:51 PM 73.9 °F 57.0 °F 55% 30.02 in 10.0 mi North 5.8 mph - N/A   Clear
1:51 PM 78.1 °F 55.9 °F 46% 29.99 in 10.0 mi North 5.8 mph - N/A   Clear
2:51 PM 73.9 °F 55.0 °F 52% 29.99 in 10.0 mi NE 8.1 mph - N/A   Clear
3:51 PM 75.0 °F 55.0 °F 50% 29.98 in 10.0 mi Variable 6.9 mph - N/A   Clear
4:51 PM 75.0 °F 55.0 °F 50% 29.98 in 10.0 mi North 4.6 mph - N/A   Clear
5:51 PM 73.0 °F 54.0 °F 51% 29.98 in 10.0 mi NNE 9.2 mph - N/A   Clear
6:51 PM 71.1 °F 54.0 °F 55% 29.98 in 10.0 mi NE 9.2 mph - 0.00 in Rain Light Rain
7:51 PM 72.0 °F 55.9 °F 57% 29.97 in 10.0 mi ESE 4.6 mph - N/A   Partly Cloudy
8:51 PM 72.0 °F 55.0 °F 55% 29.96 in 10.0 mi East 3.5 mph - N/A   Clear
9:51 PM 71.1 °F 55.9 °F 59% 29.99 in 10.0 mi Calm Calm - N/A   Overcast
10:51 PM 68.0 °F 57.2 °F 68% 30.00 in 10.0 mi Calm Calm - N/A   Partly Cloudy
11:51 PM 71.1 °F 57.9 °F 63% 29.98 in 10.0 mi South 5.8 mph - N/A   Clear